Whiteman AFB, MO

10:05 AM CDT on April 22, 2018 (GMT -0500)
Whiteman Air Force Base

Weather History for KSZL - October, 2013

Change the Weather History Date:

Saturday, October 5, 2013

  Actual Average Record
Temperature  
Mean Temperature 58 °F -  
Max Temperature 72 °F 70 °F 88 °F (2007)
Min Temperature 44 °F 48 °F 36 °F (2012)
Degree Days  
Heating Degree Days 8    
Growing Degree Days 8 (Base 50)    
Moisture  
Dew Point 47 °F    
Average Humidity 71    
Maximum Humidity 93    
Minimum Humidity 43    
Precipitation  
Precipitation 0.12 in - - ()
Sea Level Pressure  
Sea Level Pressure 29.95 in    
Wind  
Wind Speed 10 mph (West)    
Max Wind Speed 23 mph    
Max Gust Speed 26 mph    
Visibility 10 miles    
Events Rain , Thunderstorm    
Averages and records for this station are not official NWS values.
T = Trace of Precipitation, MM = Missing Value Source: NWS Daily Summary

Daily Weather History Graph

Daily Weather History Graph

Search for Another Location

Airport or City:

Astronomy

Oct. 05, 2013 Rise Set
Actual Time 7:14 AM CDT 6:50 PM CDT
Civil Twilight 6:47 AM CDT 7:16 PM CDT
Nautical Twilight 6:16 AM CDT 7:47 PM CDT
Astronomical Twilight 5:45 AM CDT 8:18 PM CDT
Moon 7:53 AM CDT (10/5) 7:10 PM CDT (10/5)
Length of Visible Light 12h 29m
Length of Day
11h 36m
New Moon, 1% of the Moon is Illuminated
Oct 5
New Moon
Oct 11
First Quarter
Oct 18
Full
Oct 26
Last Quarter
Nov 3
New

Hourly Weather History & Observations

Time (CDT) Temp. Windchill Dew Point Humidity Pressure Visibility Wind Dir Wind Speed Gust Speed Precip Events Conditions
12:58 AM 71.8 °F - 67.6 °F 87% 29.88 in 10.0 mi WSW 8.1 mph - N/A   Scattered Clouds
1:58 AM 70.3 °F - 66.4 °F 87% 29.88 in 10.0 mi SSW 8.1 mph - N/A   Scattered Clouds
2:58 AM 68.9 °F - 63.1 °F 82% 29.88 in 10.0 mi West 10.4 mph - N/A   Scattered Clouds
3:58 AM 64.6 °F - 57.4 °F 77% 29.92 in 10.0 mi WNW 16.1 mph - N/A   Overcast
4:03 AM 64.4 °F - 57.2 °F 77% 29.92 in 10.0 mi WNW 23.0 mph 26.5 mph N/A   Overcast
4:44 AM 60.8 °F - 53.6 °F 77% 29.95 in 10.0 mi WNW 12.7 mph - N/A Rain Light Rain
4:58 AM 59.2 °F - 54.5 °F 84% 29.95 in 8.0 mi WNW 11.5 mph - 0.00 in Rain Rain
5:58 AM 56.1 °F - 54.1 °F 93% 29.93 in 10.0 mi North 6.9 mph - 0.10 in Rain Light Rain
6:03 AM 55.4 °F - 51.8 °F 88% 29.93 in 10.0 mi North 6.9 mph - N/A Rain Light Rain
6:50 AM 55.4 °F - 51.8 °F 88% 29.97 in 10.0 mi West 6.9 mph - N/A   Partly Cloudy
6:58 AM 55.0 °F - 52.5 °F 91% 29.97 in 10.0 mi WNW 6.9 mph - 0.01 in   Scattered Clouds
7:58 AM 54.0 °F - 50.4 °F 88% 29.98 in 10.0 mi WNW 4.6 mph - N/A   Mostly Cloudy
8:58 AM 53.4 °F - 48.9 °F 85% 29.98 in 10.0 mi WNW 11.5 mph - N/A   Mostly Cloudy
9:58 AM 52.2 °F - 44.4 °F 75% 30.00 in 10.0 mi WNW 10.4 mph - N/A   Mostly Cloudy
10:58 AM 53.2 °F - 43.9 °F 71% 30.01 in 10.0 mi West 12.7 mph - N/A   Overcast
11:48 AM 53.6 °F - 41.0 °F 62% 30.01 in 9.0 mi West 10.4 mph - N/A Rain , Thunderstorm Light Thunderstorms and Rain
11:58 AM 53.1 °F - 42.6 °F 68% 30.01 in 9.0 mi West 10.4 mph - 0.00 in Rain , Thunderstorm Light Thunderstorms and Rain
12:13 PM 51.8 °F - 42.8 °F 71% 30.01 in 10.0 mi West 8.1 mph - N/A   Overcast
12:22 PM 51.8 °F - 42.8 °F 71% 30.02 in 9.0 mi WNW 9.2 mph - N/A Rain Light Rain
12:29 PM 51.8 °F - 41.0 °F 67% 30.03 in 10.0 mi West 9.2 mph - N/A   Overcast
12:58 PM 52.7 °F - 41.4 °F 65% 30.00 in 10.0 mi West 6.9 mph - 0.01 in   Overcast
1:26 PM 57.2 °F - 41.0 °F 55% 29.97 in 10.0 mi WNW 12.7 mph - N/A   Mostly Cloudy
1:58 PM 58.1 °F - 41.7 °F 54% 29.96 in 10.0 mi West 13.8 mph - N/A   Mostly Cloudy
2:58 PM 61.5 °F - 40.5 °F 46% 29.94 in 10.0 mi WSW 13.8 mph - N/A   Scattered Clouds
3:58 PM 63.1 °F - 40.8 °F 44% 29.92 in 10.0 mi West 10.4 mph - N/A   Partly Cloudy
4:16 PM 62.6 °F - 41.0 °F 45% 29.92 in 10.0 mi WNW 15.0 mph 18.4 mph N/A   Clear
4:58 PM 62.4 °F - 39.6 °F 43% 29.91 in 10.0 mi West 13.8 mph - N/A   Clear
5:58 PM 61.0 °F - 39.6 °F 45% 29.91 in 10.0 mi WSW 10.4 mph - N/A   Clear
6:58 PM 56.3 °F - 39.4 °F 53% 29.94 in 10.0 mi West 10.4 mph - N/A   Clear
7:58 PM 52.0 °F - 38.7 °F 60% 29.96 in 10.0 mi WSW 5.8 mph - N/A   Clear
8:58 PM 49.8 °F - 39.6 °F 68% 29.96 in 9.0 mi SSW 5.8 mph - N/A   Clear
9:58 PM 45.1 °F 40.8 °F 39.6 °F 81% 29.96 in 10.0 mi South 8.1 mph - N/A   Clear
10:58 PM 44.8 °F 39.4 °F 39.9 °F 83% 29.94 in 10.0 mi SSW 10.4 mph - N/A   Clear
11:58 PM 47.8 °F - 39.7 °F 74% 29.93 in 10.0 mi SW 5.8 mph - N/A   Clear